AMAZONAS 4A

Last updated on Mon Feb 16 2026 00:02:49 GMT+0000 (Coordinated Universal Time)

1 39616U 14011A 26046.52581716 -.00000248 00000+0 00000+0 0 9998 2 39616 0.0664 200.6488 0003019 91.4082 328.7821 1.00273036 43491
UTC large
Height (km)
Speed (km/s)
/
Latitude / Longitude
Inclination (degrees)
Orbital Period (minutes)
Azimuth
Elevation
Range (km)
Doppler Factor

Next 0 passes for location: London (51.5072 / 0.1276)

Sorry there are no passes over London.